Find Starlink 11136

NORAD ID: 60407 Int'l Des: 2024-141 Owner: SPXS Country: US Constellation: starlink operational
LEOCIRCULAR

Live-Position

3D-Globus wird geladen...

Über Starlink 11136

Beschreibung wird geladen...

Nächste Überflüge

Passes for default location (London). Set your location on the main map for personalized predictions.

Höhenverlauf

Loading altitude history...

Zweizeiliger Elementsatz

1 60407U 24141K 26122.88817899 -.00000328 00000-0 21542-5 0 9993
2 60407 53.1604 179.2078 0001209 87.9652 272.1505 15.69702334100206
Epoch: 2. Mai 2026 • Age: 10 hours

Aktueller Status

Höhe 360.2 km
Geschwindigkeit 7.70 km/s
Subsatellitenpunkt 24.06°N, 9.78°E
Startdatum 10. Aug. 2024
Alter 1.7 years
Typ internet

Technische Details

Klassifizierung Payload
Masse 960.00 kg
Trockenmasse 910.00 kg
Gesamtmasse 960.00 kg
Länge 0.30 m
Durchmesser 4.10 m
Spannweite 29.00 m
Form Box + pan
Hersteller SPXS
Bus-Typ Starlink V2MD
Phasenstatus In Orbit
Besitzer/Staat SPXS/US

Most Searched